TOURFACTS.DK  
Stats and Facts from Tour de France.

Tour de France 2019 starts in 348 days
  Riders   Stages   Teams   Summits   Yearly  


 
Search by year

After 2018 - Stage 14:
 15000 starters.
  5163 different riders.
  639 teams.
  2246 stages.
  456 restdays.
  441957.60 km.
  5678 abandonnees.


Top 3
GC
Christopher Froome86:20:55
Rigoberto Urán86:21:49
Romain Bardet86:23:15
Climb
Warren Barguil169 pt.
Primoz Roglic80 pt.
Thomas De Gendt64 pt.
Sprint
Michael Matthews359 pt.
André Greipel234 pt.
Edvald Boasson Hagen220 pt.
Youth
Simon Yates86:27:09
Louis Meintjes86:29:15
Emanuel Buchmann86:54:16
Facts from Tour de France 1931
  |   Stages.  |   Stage winners.  |   Days in yellow  |   Average speed.  |   Route.  |   Teams.  |   All riders.  |   Rookies.  |  

  |   Withdrawls.  |   GC.  |   Polka  |   Green  |   White  |   Summits. (In tour)  |   Miscellaneous.  |  

Stage 4 on July 3rd. 1931
         Owning:    Rafaële Di Paco    
Pick a stage:  1 2 3 4 5 6 7 8 9 10 11 12 13 14 15 16 17 18 19 20 21 22 23 24
From: Brest    To: VannesDist:211.00 km.

Average speed for all riders in stage:  33,182 km./hr.
    Place:Name:Team:Time:Km/h:
FRAAndré GodinatTouristes Routiers06:08:16  +  00:00:00=34,377 
BELJean NaertTouristes Routiers06:14:31  +  00:06:15=33,804 
AUTMax BullaTouristes Routiers06:15:37  +  00:07:21=33,705 
4 ITARafaële Di PacoITAItaly06:16:47  +  00:08:31=33,600 
5 ITAFabio BattesiniITAItaly06:16:47  +  00:08:31=33,600 
6 GERKurt StöpelDEUGermany06:16:47  +  00:08:31=33,600 
7 GERKarl AltenburgerDEUGermany06:16:47  +  00:08:31=33,600 
8 FRACharles PelissierFRAFrance06:16:47  +  00:08:31=33,600 
9 FRALéon Le CalvezFRAFrance06:16:47  +  00:08:31=33,600 
10 SUIGeorges AntenenCHEAustralia-Switzerland06:16:47  +  00:08:31=33,600 
11 GERHermann BuseDEUGermany06:16:47  +  00:08:31=33,600 
12 BELGaston RebryBELBelgium06:16:47  +  00:08:31=33,600 
13 BELJef DemuysereBELBelgium06:16:47  +  00:08:31=33,600 
14 BELJulien VervaeckeBELBelgium06:16:47  +  00:08:31=33,600 
15 BELMaurice De WaeleBELBelgium06:16:47  +  00:08:31=33,600 
16 ITALuigi GiacobbeITAItaly06:16:47  +  00:08:31=33,600 
17 ITAFrancesco CamussoITAItaly06:16:47  +  00:08:31=33,600 
18 ITAEugenio GestriITAItaly06:16:47  +  00:08:31=33,600 
19 ITAFelice GremoITAItaly06:16:47  +  00:08:31=33,600 
20 ITAMichele OrecchiaITAItaly06:16:47  +  00:08:31=33,600 
21 ITAAntonio PesentiITAItaly06:16:47  +  00:08:31=33,600 
22 AUSHubert OppermanCHEAustralia-Switzerland06:16:47  +  00:08:31=33,600 
23 AUSRichard LambCHEAustralia-Switzerland06:16:47  +  00:08:31=33,600 
24 SUIRoger PipozCHEAustralia-Switzerland06:16:47  +  00:08:31=33,600 
25 SUIAlbert BüchiCHEAustralia-Switzerland06:16:47  +  00:08:31=33,600 
26 GEROskar ThierbachDEUGermany06:16:47  +  00:08:31=33,600 
27 GERHerbert SieronskiDEUGermany06:16:47  +  00:08:31=33,600 
28 GERErich MetzeDEUGermany06:16:47  +  00:08:31=33,600 
29 POLAlfred SiegelDEUGermany06:16:47  +  00:08:31=33,600 
30 FRAAntonin MagneFRAFrance06:16:47  +  00:08:31=33,600 
31 FRABenoit FaureFRAFrance06:16:47  +  00:08:31=33,600 
32 FRAAndré LeducqFRAFrance06:16:47  +  00:08:31=33,600 
33 FRAJoseph MauclairFRAFrance06:16:47  +  00:08:31=33,600 
34 FRALouis PeglionFRAFrance06:16:47  +  00:08:31=33,600 
35 BELRomain GijsselsBELBelgium06:18:00  +  00:09:44=33,492 
36 FRAMarius GuiramandTouristes Routiers06:19:17  +  00:11:01=33,379 
37 ESPSalvador CardonaTouristes Routiers06:20:30  +  00:12:14=33,272 
38 FRAAdrien ButtafocchiTouristes Routiers06:20:30  +  00:12:14=33,272 
39 BELAchille ViaeneTouristes Routiers06:20:30  +  00:12:14=33,272 
40 FRALouis BajardTouristes Routiers06:20:30  +  00:12:14=33,272 
41 BELAlfred HamerlinckBELBelgium06:20:58  +  00:12:42=33,231 
42 GERLudwig GeyerDEUGermany06:20:58  +  00:12:42=33,231 
43 BELAlfons SchepersBELBelgium06:20:58  +  00:12:42=33,231 
44 BELBernard Van RysselbergheBELBelgium06:20:58  +  00:12:42=33,231 
45 ESPFrancisco CepedaESPSpain06:26:32  +  00:18:16=32,753 
46 FRAJean MaréchalFRAFrance06:26:32  +  00:18:16=32,753 
47 FRALazare VenotTouristes Routiers06:26:37  +  00:18:21=32,746 
48 BELJules GoedhuysTouristes Routiers06:26:47  +  00:18:31=32,732 
49 BELAuguste Van TrichtTouristes Routiers06:26:47  +  00:18:31=32,732 
50 BELRobert Van GrootenbrueleTouristes Routiers06:26:47  +  00:18:31=32,732 
51 ITAGiuseppe PanceraTouristes Routiers06:26:47  +  00:18:31=32,732 
52 ITAAlessandro CatalaniTouristes Routiers06:26:47  +  00:18:31=32,732 
53 ITAAmulio ViarengoTouristes Routiers06:26:47  +  00:18:31=32,732 
54 FRARené BernardTouristes Routiers06:26:47  +  00:18:31=32,732 
55 FRAJean BidotTouristes Routiers06:26:47  +  00:18:31=32,732 
56 FRAFrancis BouilletTouristes Routiers06:26:47  +  00:18:31=32,732 
57 FRARobert BrugéreTouristes Routiers06:26:47  +  00:18:31=32,732 
58 FRAFrancois FavéTouristes Routiers06:26:47  +  00:18:31=32,732 
59 FRAFrancois HenriTouristes Routiers06:26:47  +  00:18:31=32,732 
60 FRAAndré Van VierstTouristes Routiers06:26:47  +  00:18:31=32,732 
61 BELGerard LonckeTouristes Routiers06:26:47  +  00:18:31=32,732 
62 BELGeorges LaloupTouristes Routiers06:30:48  +  00:22:32=32,395 
63 BELFrançois MoreelsTouristes Routiers06:30:58  +  00:22:42=32,381 
64 FRAJulien PerrainTouristes Routiers06:30:58  +  00:22:42=32,381 
65 GERKurt NitzschkeTouristes Routiers06:30:58  +  00:22:42=32,381 
66 FRAGeorges BertonTouristes Routiers06:31:10  +  00:22:54=32,365 
67 FRAFernand FayolleTouristes Routiers06:36:32  +  00:28:16=31,927 
68 FRAJean RiondetTouristes Routiers06:36:32  +  00:28:16=31,927 
69 GERErich UssatTouristes Routiers06:41:00  +  00:32:44=31,571 

Withdrawls: 1
 
Rider
Team
Reason
19  AUSOserick NicholsonCHEAustralia-SwitzerlandDid not finish

Todays birthdays.

1877  Antoine Perrichon
1878  Auguste Berthault
1911  Théo Herckenrath
1924  Carlo Lafranchi
1931  Armand Di Caro
1937  Jean-Claude Lebaube
1951  Giovanni Battaglin
1961  Pascal Jules
1962  Jean-Claude Leclercq
1976  Janek Tombak
1978  Francisco Pérez
1983  Dries Devenyns




Visits: